Date String (YYYY-MM-DD hh:mm:ss) UTC,Instrument flags,absolute air pressure of the measurement (hPa),sample flow rate (lpm),inlet stack bypass flow (lpm),air temperature of the measurement (°C),ambient temperature measured by the external sensor (°C),aerosol sample conditioner tube jacket temperature (°C),OPC LED temperature (°C),internal box temperature (°C),relative humidity of the measurement (%),span deviation,mass concentration of particles derived from Lorenz-Mie calculation of OPC scattering (μg/m³),mass concentration of particles derived from Lorenz-Mie calculation of OPC scattering (μg/m³),mass concentration of particles derived from Lorenz-Mie calculation of OPC scattering (μg/m³)
DateTimeUTC,F1_M11,P_M11,Q1_M11,Q2_M11,T1_M11,T2_M11,T3_M11,T4_M11,T5_M11,U1_M11,ZSPAN_M11,X0_M11,X2_M11,X1_M11
2024-02-10 08:00:00,SystemResetWarning,0825.3,5.00,000.00,018.3,017.8,000.0,026.8,020.0,22.2,0000.0,0002.60,0002.02,0001.85
2024-02-10 08:01:00,SystemResetWarning,0825.3,5.00,000.00,018.3,017.8,000.0,026.8,020.0,22.2,0000.0,0002.71,0002.07,0001.87
2024-02-10 08:02:00,SystemResetWarning,0825.3,5.00,000.00,018.3,017.8,000.0,026.8,020.0,22.2,0000.0,0002.83,0002.11,0001.89
2024-02-10 08:03:00,SystemResetWarning,0825.4,4.99,000.00,018.3,017.7,000.0,026.8,020.0,22.2,0000.0,0002.81,0002.13,0001.92
2024-02-10 08:04:00,SystemResetWarning,0825.3,5.00,000.00,018.3,017.7,000.0,026.8,020.0,22.2,0000.0,0002.78,0002.14,0001.95
2024-02-10 08:05:00,SystemResetWarning,0825.3,5.00,000.00,018.3,017.7,000.0,026.8,020.0,22.2,0000.0,0002.79,0002.17,0001.99
2024-02-10 08:06:00,SystemResetWarning,0825.3,5.00,000.00,018.3,017.7,000.0,026.8,020.0,22.2,0000.0,0002.84,0002.22,0002.05
2024-02-10 08:07:00,SystemResetWarning,0825.4,5.00,000.00,018.3,017.8,000.0,026.8,020.0,22.2,0000.0,0003.01,0002.30,0002.10
2024-02-10 08:08:00,SystemResetWarning,0825.3,5.00,000.00,018.3,017.8,000.0,026.8,020.0,22.2,0000.0,0003.13,0002.37,0002.15
2024-02-10 08:09:00,SystemResetWarning,0825.3,5.00,000.00,018.3,017.8,000.0,026.8,020.0,22.2,0000.0,0003.19,0002.42,0002.21
2024-02-10 08:10:00,SystemResetWarning,0825.4,5.00,000.00,018.3,017.8,000.0,026.8,020.0,22.2,0000.0,0003.19,0002.45,0002.25
2024-02-10 08:11:00,SystemResetWarning,0825.3,5.00,000.00,018.3,017.8,000.0,026.8,020.0,22.2,0000.0,0003.22,0002.48,0002.30
2024-02-10 08:12:00,SystemResetWarning,0825.4,5.00,000.00,018.3,017.8,000.0,026.8,020.1,22.2,0000.0,0003.21,0002.51,0002.35
2024-02-10 08:13:00,SystemResetWarning,0825.4,5.00,000.00,018.3,017.8,000.0,026.8,020.1,22.2,0000.0,0003.17,0002.54,0002.40
2024-02-10 08:14:00,SystemResetWarning,0825.4,5.00,000.00,018.3,017.8,000.0,026.8,020.1,22.2,0000.0,0003.22,0002.60,0002.47
2024-02-10 08:15:00,SystemResetWarning,0825.4,5.00,000.00,018.3,017.8,000.0,026.8,020.1,22.2,0000.0,0003.44,0002.67,0002.52
2024-02-10 08:16:00,SystemResetWarning,0825.4,5.00,000.00,018.3,017.8,000.0,026.8,020.1,22.2,0000.0,0003.57,0002.72,0002.54
2024-02-10 08:17:00,SystemResetWarning,0825.4,5.00,000.00,018.3,017.8,000.0,026.8,020.0,22.2,0000.0,0003.65,0002.76,0002.55
2024-02-10 08:18:00,SystemResetWarning,0825.5,5.00,000.00,018.3,017.8,000.0,026.8,020.0,22.2,0000.0,0003.59,0002.75,0002.55
2024-02-10 08:19:00,SystemResetWarning,0825.5,5.01,000.00,018.3,017.8,000.0,026.7,020.0,22.2,0000.0,0003.48,0002.72,0002.55
2024-02-10 08:20:00,SystemResetWarning,0825.5,5.00,000.00,018.3,017.8,000.0,026.8,020.1,22.2,0000.0,0003.46,0002.71,0002.55
2024-02-10 08:21:00,SystemResetWarning,0825.5,5.00,000.00,018.3,017.8,000.0,026.8,020.1,22.2,0000.0,0003.45,0002.72,0002.55
2024-02-10 08:22:00,SystemResetWarning,0825.5,5.00,000.00,018.3,017.8,000.0,026.8,020.1,22.2,0000.0,0003.49,0002.74,0002.56
2024-02-10 08:23:00,SystemResetWarning,0825.5,5.00,000.00,018.3,017.8,000.0,026.8,020.1,22.3,0000.0,0003.53,0002.75,0002.57
2024-02-10 08:24:00,SystemResetWarning,0825.5,5.00,000.00,018.3,017.8,000.0,026.8,020.1,22.3,0000.0,0003.53,0002.76,0002.58
2024-02-10 08:25:00,SystemResetWarning,0825.5,5.00,000.00,018.3,017.8,000.0,026.8,020.1,22.3,0000.0,0003.51,0002.74,0002.57
2024-02-10 08:26:00,SystemResetWarning,0825.5,4.99,000.00,018.3,017.8,000.0,026.8,020.1,22.3,0000.0,0003.42,0002.72,0002.57
2024-02-10 08:27:00,SystemResetWarning,0825.4,4.99,000.00,018.3,017.8,000.0,026.8,020.1,22.3,0000.0,0003.30,0002.71,0002.57
2024-02-10 08:28:00,SystemResetWarning,0825.4,5.00,000.00,018.3,017.8,000.0,026.8,020.1,22.2,0000.0,0003.33,0002.74,0002.61
2024-02-10 08:29:00,SystemResetWarning,0825.4,5.01,000.00,018.3,017.8,000.0,026.8,020.1,22.2,0000.0,0004.35,0002.78,0002.64
2024-02-10 08:30:00,SystemResetWarning,0825.4,5.00,000.00,018.3,017.8,000.0,026.8,020.1,22.2,0000.0,0004.86,0002.81,0002.65
2024-02-10 08:31:00,SystemResetWarning,0825.4,5.01,000.00,018.3,017.8,000.0,026.8,020.1,22.2,0000.0,0005.01,0002.85,0002.67
2024-02-10 08:32:00,SystemResetWarning,0825.4,4.99,000.00,018.3,017.8,000.0,026.8,020.1,22.2,0000.0,0005.05,0002.87,0002.69
2024-02-10 08:33:00,SystemResetWarning,0825.4,4.99,000.00,018.3,017.8,000.0,026.8,020.1,22.2,0000.0,0005.10,0002.91,0002.72
2024-02-10 08:34:00,SystemResetWarning,0825.4,5.00,000.00,018.3,017.8,000.0,026.8,020.1,22.2,0000.0,0005.11,0002.94,0002.76
2024-02-10 08:35:00,SystemResetWarning,0825.4,5.01,000.00,018.3,017.8,000.0,026.8,020.1,22.2,0000.0,0005.12,0002.97,0002.81
2024-02-10 08:36:00,SystemResetWarning,0825.4,5.00,000.00,018.3,017.8,000.0,026.8,020.1,22.2,0000.0,0005.19,0003.03,0002.87
2024-02-10 08:37:00,SystemResetWarning,0825.4,4.99,000.00,018.3,017.8,000.0,026.8,020.1,22.2,0000.0,0005.32,0003.11,0002.93
2024-02-10 08:38:00,SystemResetWarning,0825.4,5.00,000.00,018.3,017.8,000.0,026.8,020.1,22.2,0000.0,0005.36,0003.14,0002.99
2024-02-10 08:39:00,SystemResetWarning,0825.4,4.99,000.00,018.3,017.8,000.0,026.8,020.1,22.2,0000.0,0005.45,0003.15,0003.02
2024-02-10 08:40:00,SystemResetWarning,0825.4,5.00,000.00,018.3,017.8,000.0,026.8,020.1,22.2,0000.0,0005.68,0003.16,0003.07
2024-02-10 08:41:00,SystemResetWarning,0825.5,5.00,000.00,018.3,017.8,000.0,026.8,020.1,22.2,0000.0,0004.99,0003.18,0003.11
2024-02-10 08:42:00,SystemResetWarning,0825.5,5.00,000.00,018.3,017.8,000.0,026.8,020.1,22.2,0000.0,0004.89,0003.19,0003.14
2024-02-10 08:43:00,SystemResetWarning,0825.5,5.00,000.00,018.3,017.8,000.0,026.8,020.1,22.2,0000.0,0005.03,0003.23,0003.17
2024-02-10 08:44:00,SystemResetWarning,0825.5,5.00,000.00,018.3,017.8,000.0,026.8,020.1,22.2,0000.0,0005.28,0003.28,0003.19
2024-02-10 08:45:00,SystemResetWarning,0825.5,5.01,000.00,018.3,017.8,000.0,026.8,020.1,22.2,0000.0,0005.30,0003.30,0003.21
2024-02-10 08:46:00,SystemResetWarning,0825.5,5.00,000.00,018.3,017.8,000.0,026.7,020.1,22.2,0000.0,0005.38,0003.32,0003.22
2024-02-10 08:47:00,SystemResetWarning,0825.5,5.01,000.00,018.3,017.8,000.0,026.8,020.1,22.2,0000.0,0005.38,0003.33,0003.23
2024-02-10 08:48:00,SystemResetWarning,0825.4,5.00,000.00,018.3,017.8,000.0,026.8,020.1,22.2,0000.0,0005.36,0003.34,0003.25
2024-02-10 08:49:00,SystemResetWarning,0825.4,4.99,000.00,018.3,017.8,000.0,026.8,020.1,22.2,0000.0,0005.38,0003.35,0003.26
2024-02-10 08:50:00,SystemResetWarning,0825.4,4.99,000.00,018.3,017.8,000.0,026.8,020.1,22.2,0000.0,0005.32,0003.37,0003.27
2024-02-10 08:51:00,SystemResetWarning,0825.4,5.00,000.00,018.3,017.8,000.0,026.8,020.1,22.2,0000.0,0004.47,0003.38,0003.28
2024-02-10 08:52:00,SystemResetWarning,0825.4,5.00,000.00,018.3,017.8,000.0,026.8,020.1,22.2,0000.0,0004.52,0003.40,0003.29
2024-02-10 08:53:00,SystemResetWarning,0825.3,5.00,000.00,018.3,017.8,000.0,026.8,020.1,22.1,0000.0,0004.57,0003.42,0003.30
2024-02-10 08:54:00,SystemResetWarning,0825.3,5.01,000.00,018.3,017.8,000.0,026.8,020.1,22.1,0000.0,0004.58,0003.43,0003.31
2024-02-10 08:55:00,SystemResetWarning,0825.3,5.01,000.00,018.3,017.8,000.0,026.8,020.1,22.1,0000.0,0004.44,0003.43,0003.32
2024-02-10 08:56:00,SystemResetWarning,0825.3,4.99,000.00,018.3,017.8,000.0,026.8,020.1,22.1,0000.0,0004.52,0003.44,0003.33
2024-02-10 08:57:00,SystemResetWarning,0825.3,4.99,000.00,018.3,017.8,000.0,026.8,020.1,22.1,0000.0,0004.54,0003.45,0003.33
2024-02-10 08:58:00,SystemResetWarning,0825.3,5.00,000.00,018.3,017.8,000.0,026.8,020.1,22.0,0000.0,0004.55,0003.45,0003.34
2024-02-10 08:59:00,SystemResetWarning,0825.2,5.01,000.00,018.3,017.8,000.0,026.8,020.1,22.0,0000.0,0004.54,0003.45,0003.34
